owner,sensor,date,latitude,longitude,vertical_datum,direction_of_sea_water_velocity,sea_water_speed,upward_sea_water_velocity,qcFlag 
TABS,ioos:station:TABS:M:1,1999-09-01T00:00:00Z,28.1921,-94.1914,2.0,103.7179947,25.76495682,-99999.0,'11111222,11111222,99999999' 
TABS,ioos:station:TABS:M:1,1999-09-01T00:30:00Z,28.1921,-94.1914,2.0,103.4215369,23.73832766,-99999.0,'11111222,11111222,99999999' 
TABS,ioos:station:TABS:M:1,1999-09-01T01:00:00Z,28.1921,-94.1914,2.0,104.2144632,21.82831189,-99999.0,'11111222,11111222,99999999' 
TABS,ioos:station:TABS:M:1,1999-09-01T01:30:00Z,28.1921,-94.1914,2.0,108.1849338,21.01985966,-99999.0,'11111222,11111222,99999999' 
TABS,ioos:station:TABS:M:1,1999-09-01T02:00:00Z,28.1921,-94.1914,2.0,109.2957104,18.94418116,-99999.0,'11111222,11111222,99999999' 
TABS,ioos:station:TABS:M:1,1999-09-01T02:30:00Z,28.1921,-94.1914,2.0,108.2653925,17.10167243,-99999.0,'11111222,11111222,99999999' 
TABS,ioos:station:TABS:M:1,1999-09-01T03:00:00Z,28.1921,-94.1914,2.0,107.2736665,14.04339702,-99999.0,'11111222,11111222,99999999' 
TABS,ioos:station:TABS:M:1,1999-09-01T03:30:00Z,28.1921,-94.1914,2.0,100.2192031,12.56939935,-99999.0,'11111222,11111222,99999999' 
TABS,ioos:station:TABS:M:1,1999-09-01T04:00:00Z,28.1921,-94.1914,2.0,101.6731994,9.588310592,-99999.0,'11133222,11111222,99999999' 
TABS,ioos:station:TABS:M:1,1999-09-01T04:30:00Z,28.1921,-94.1914,2.0,96.86367586,8.702367494,-99999.0,'11133222,11111222,99999999' 
TABS,ioos:station:TABS:M:1,1999-09-01T05:00:00Z,28.1921,-94.1914,2.0,78.29530915,8.823474372,-99999.0,'11133222,11111222,99999999' 
TABS,ioos:station:TABS:M:1,1999-09-01T05:30:00Z,28.1921,-94.1914,2.0,60.69131238,7.006925146,-99999.0,'11133222,11111222,99999999' 
TABS,ioos:station:TABS:M:1,1999-09-01T06:00:00Z,28.1921,-94.1914,2.0,47.93077088,6.223608278,-99999.0,'11133222,11111222,99999999' 
TABS,ioos:station:TABS:M:1,1999-09-01T06:30:00Z,28.1921,-94.1914,2.0,27.09899443,7.200451375,-99999.0,'11133222,11111222,99999999' 
TABS,ioos:station:TABS:M:1,1999-09-01T07:00:00Z,28.1921,-94.1914,2.0,15.09252221,8.026867384,-99999.0,'11133222,11111222,99999999' 
TABS,ioos:station:TABS:M:1,1999-09-01T07:30:00Z,28.1921,-94.1914,2.0,11.16432635,10.01960578,-99999.0,'11111222,11111222,99999999' 
TABS,ioos:station:TABS:M:1,1999-09-01T08:00:00Z,28.1921,-94.1914,2.0,7.021484266,10.96220781,-99999.0,'11111222,11111222,99999999' 
TABS,ioos:station:TABS:M:1,1999-09-01T08:30:00Z,28.1921,-94.1914,2.0,0.000210459,14.9,-99999.0,'11111222,11111222,99999999' 
TABS,ioos:station:TABS:M:1,1999-09-01T09:00:00Z,28.1921,-94.1914,2.0,357.4385102,16.55654553,-99999.0,'11111222,11111222,99999999' 
TABS,ioos:station:TABS:M:1,1999-09-01T09:30:00Z,28.1921,-94.1914,2.0,0.000210459,24.58,-99999.0,'11111222,11111222,99999999' 
TABS,ioos:station:TABS:M:1,1999-09-01T10:00:00Z,28.1921,-94.1914,2.0,5.359313448,27.08840711,-99999.0,'11111222,11111222,99999999' 
TABS,ioos:station:TABS:M:1,1999-09-01T10:30:00Z,28.1921,-94.1914,2.0,33.85462802,29.95948097,-99999.0,'11111222,11111222,99999999' 
TABS,ioos:station:TABS:M:1,1999-09-01T11:00:00Z,28.1921,-94.1914,2.0,28.69783174,30.40475127,-99999.0,'11111222,11111222,99999999' 
TABS,ioos:station:TABS:M:1,1999-09-01T11:30:00Z,28.1921,-94.1914,2.0,25.61081925,27.92341849,-99999.0,'11111222,11111222,99999999' 
TABS,ioos:station:TABS:M:1,1999-09-01T12:00:00Z,28.1921,-94.1914,2.0,27.80094098,27.78737123,-99999.0,'11111222,11111222,99999999' 
TABS,ioos:station:TABS:M:1,1999-09-01T12:30:00Z,28.1921,-94.1914,2.0,31.0799715,25.3955626,-99999.0,'11111222,11111222,99999999' 
TABS,ioos:station:TABS:M:1,1999-09-01T13:00:00Z,28.1921,-94.1914,2.0,78.05225132,17.96927377,-99999.0,'11111222,11111222,99999999' 
TABS,ioos:station:TABS:M:1,1999-09-01T13:30:00Z,28.1921,-94.1914,2.0,91.53069514,16.8460114,-99999.0,'11111222,11111222,99999999' 
TABS,ioos:station:TABS:M:1,1999-09-01T14:00:00Z,28.1921,-94.1914,2.0,96.66972376,19.19994271,-99999.0,'11111222,11111222,99999999' 
TABS,ioos:station:TABS:M:1,1999-09-01T14:30:00Z,28.1921,-94.1914,2.0,96.1343956,23.67556758,-99999.0,'11111222,11111222,99999999' 
TABS,ioos:station:TABS:M:1,1999-09-01T15:00:00Z,28.1921,-94.1914,2.0,96.37425182,24.13923155,-99999.0,'11111222,11111222,99999999' 
TABS,ioos:station:TABS:M:1,1999-09-01T15:30:00Z,28.1921,-94.1914,2.0,109.6120478,23.08949978,-99999.0,'11111222,11111222,99999999' 
TABS,ioos:station:TABS:M:1,1999-09-01T16:00:00Z,28.1921,-94.1914,2.0,117.0235946,24.58411886,-99999.0,'11111222,11111222,99999999' 
TABS,ioos:station:TABS:M:1,1999-09-01T16:30:00Z,28.1921,-94.1914,2.0,135.894135,27.18449558,-99999.0,'11111222,11111222,99999999' 
TABS,ioos:station:TABS:M:1,1999-09-01T17:00:00Z,28.1921,-94.1914,2.0,118.7721253,26.01135137,-99999.0,'11111222,11111222,99999999' 
TABS,ioos:station:TABS:M:1,1999-09-01T17:30:00Z,28.1921,-94.1914,2.0,119.7010523,24.36042898,-99999.0,'11111222,11111222,99999999' 
TABS,ioos:station:TABS:M:1,1999-09-01T18:00:00Z,28.1921,-94.1914,2.0,113.0041497,24.76978805,-99999.0,'11111222,11111222,99999999' 
TABS,ioos:station:TABS:M:1,1999-09-01T18:30:00Z,28.1921,-94.1914,2.0,112.0610679,25.39966929,-99999.0,'11111222,11111222,99999999' 
TABS,ioos:station:TABS:M:1,1999-09-01T19:00:00Z,28.1921,-94.1914,2.0,111.2731157,20.94732441,-99999.0,'11111222,11111222,99999999' 
TABS,ioos:station:TABS:M:1,1999-09-01T19:30:00Z,28.1921,-94.1914,2.0,113.3001002,22.22233561,-99999.0,'11111222,11111222,99999999' 
TABS,ioos:station:TABS:M:1,1999-09-01T20:00:00Z,28.1921,-94.1914,2.0,114.0163808,19.41038124,-99999.0,'11111222,11111222,99999999' 
TABS,ioos:station:TABS:M:1,1999-09-01T20:30:00Z,28.1921,-94.1914,2.0,125.2390769,22.98130762,-99999.0,'11111222,11111222,99999999' 
TABS,ioos:station:TABS:M:1,1999-09-01T21:00:00Z,28.1921,-94.1914,2.0,71.03072217,15.59703177,-99999.0,'11111222,11111222,99999999' 
TABS,ioos:station:TABS:M:1,1999-09-01T21:30:00Z,28.1921,-94.1914,2.0,83.30002406,10.19965686,-99999.0,'11111222,11111222,99999999' 
TABS,ioos:station:TABS:M:1,1999-09-01T22:00:00Z,28.1921,-94.1914,2.0,111.5139886,16.6607953,-99999.0,'11111222,11111222,99999999' 
TABS,ioos:station:TABS:M:1,1999-09-01T22:30:00Z,28.1921,-94.1914,2.0,97.46269113,12.62695529,-99999.0,'11111222,11111222,99999999' 
TABS,ioos:station:TABS:M:1,1999-09-01T23:00:00Z,28.1921,-94.1914,2.0,95.83603818,13.17830414,-99999.0,'11111222,11111222,99999999' 
TABS,ioos:station:TABS:M:1,1999-09-01T23:30:00Z,28.1921,-94.1914,2.0,53.4932399,8.522171085,-99999.0,'11133222,11111222,99999999' 
TABS,ioos:station:TABS:M:1,1999-09-02T00:00:00Z,28.1921,-94.1914,2.0,95.40974431,14.21330715,-99999.0,'11111222,11111222,99999999' 
TABS,ioos:station:TABS:M:1,1999-09-02T00:30:00Z,28.1921,-94.1914,2.0,80.80389053,10.26189554,-99999.0,'11111222,11111222,99999999' 
TABS,ioos:station:TABS:M:1,1999-09-02T01:00:00Z,28.1921,-94.1914,2.0,75.32785451,9.396408889,-99999.0,'11133222,11111222,99999999' 
TABS,ioos:station:TABS:M:1,1999-09-02T01:30:00Z,28.1921,-94.1914,2.0,65.61755011,5.401786741,-99999.0,'11133222,11111222,99999999' 
TABS,ioos:station:TABS:M:1,1999-09-02T02:00:00Z,28.1921,-94.1914,2.0,70.97035116,4.56973741,-99999.0,'11133222,11111222,99999999' 
TABS,ioos:station:TABS:M:1,1999-09-02T02:30:00Z,28.1921,-94.1914,2.0,82.09285579,4.361467643,-99999.0,'11133222,11111222,99999999' 
TABS,ioos:station:TABS:M:1,1999-09-02T03:00:00Z,28.1921,-94.1914,2.0,68.14178179,5.613572837,-99999.0,'11133222,11111222,99999999' 
TABS,ioos:station:TABS:M:1,1999-09-02T03:30:00Z,28.1921,-94.1914,2.0,72.18560048,4.380011416,-99999.0,'11133222,11111222,99999999' 
TABS,ioos:station:TABS:M:1,1999-09-02T04:00:00Z,28.1921,-94.1914,2.0,70.60353594,5.841549452,-99999.0,'11133222,11111222,99999999' 
TABS,ioos:station:TABS:M:1,1999-09-02T04:30:00Z,28.1921,-94.1914,2.0,76.91405387,6.580896595,-99999.0,'11133222,11111222,99999999' 
TABS,ioos:station:TABS:M:1,1999-09-02T05:00:00Z,28.1921,-94.1914,2.0,68.71787414,6.557171646,-99999.0,'11133222,11111222,99999999' 
TABS,ioos:station:TABS:M:1,1999-09-02T05:30:00Z,28.1921,-94.1914,2.0,54.44941015,5.125358524,-99999.0,'11133222,11111222,99999999' 
TABS,ioos:station:TABS:M:1,1999-09-02T06:00:00Z,28.1921,-94.1914,2.0,43.3971007,7.583152379,-99999.0,'11133222,11111222,99999999' 
TABS,ioos:station:TABS:M:1,1999-09-02T06:30:00Z,28.1921,-94.1914,2.0,51.8961733,9.658240005,-99999.0,'11133222,11111222,99999999' 
TABS,ioos:station:TABS:M:1,1999-09-02T07:00:00Z,28.1921,-94.1914,2.0,56.31001126,10.7445428,-99999.0,'11111222,11111222,99999999' 
TABS,ioos:station:TABS:M:1,1999-09-02T07:30:00Z,28.1921,-94.1914,2.0,53.5663127,11.29832731,-99999.0,'11111222,11111222,99999999' 
TABS,ioos:station:TABS:M:1,1999-09-02T08:00:00Z,28.1921,-94.1914,2.0,42.04113471,14.24598189,-99999.0,'11111222,11111222,99999999' 
TABS,ioos:station:TABS:M:1,1999-09-02T08:30:00Z,28.1921,-94.1914,2.0,41.99263558,16.03805786,-99999.0,'11111222,11111222,99999999' 
TABS,ioos:station:TABS:M:1,1999-09-02T09:00:00Z,28.1921,-94.1914,2.0,45.00010523,16.43316159,-99999.0,'11111222,11111222,99999999' 
TABS,ioos:station:TABS:M:1,1999-09-02T09:30:00Z,28.1921,-94.1914,2.0,51.18623129,15.68302586,-99999.0,'11111222,11111222,99999999' 
TABS,ioos:station:TABS:M:1,1999-09-02T10:00:00Z,28.1921,-94.1914,2.0,48.83998128,18.79466414,-99999.0,'11111222,11111222,99999999' 
TABS,ioos:station:TABS:M:1,1999-09-02T10:30:00Z,28.1921,-94.1914,2.0,53.61343265,21.10475065,-99999.0,'11111222,11111222,99999999' 
TABS,ioos:station:TABS:M:1,1999-09-02T11:00:00Z,28.1921,-94.1914,2.0,57.5689697,20.8284733,-99999.0,'11111222,11111222,99999999' 
TABS,ioos:station:TABS:M:1,1999-09-02T11:30:00Z,28.1921,-94.1914,2.0,54.4157096,19.96902602,-99999.0,'11111222,11111222,99999999' 
TABS,ioos:station:TABS:M:1,1999-09-02T12:00:00Z,28.1921,-94.1914,2.0,57.57868898,20.29313431,-99999.0,'11111222,11111222,99999999' 
TABS,ioos:station:TABS:M:1,1999-09-02T12:30:00Z,28.1921,-94.1914,2.0,60.75779795,21.35092035,-99999.0,'11111222,11111222,99999999' 
TABS,ioos:station:TABS:M:1,1999-09-02T13:00:00Z,28.1921,-94.1914,2.0,69.25760777,22.30581987,-99999.0,'11111222,11111222,99999999' 
TABS,ioos:station:TABS:M:1,1999-09-02T13:30:00Z,28.1921,-94.1914,2.0,90.0,23.09,-99999.0,'11111222,11111222,99999999' 
TABS,ioos:station:TABS:M:1,1999-09-02T14:00:00Z,28.1921,-94.1914,2.0,60.37163689,25.02157869,-99999.0,'11111222,11111222,99999999' 
TABS,ioos:station:TABS:M:1,1999-09-02T14:30:00Z,28.1921,-94.1914,2.0,74.3913626,21.03576003,-99999.0,'11111222,11111222,99999999' 
TABS,ioos:station:TABS:M:1,1999-09-02T15:00:00Z,28.1921,-94.1914,2.0,71.54800131,21.19991038,-99999.0,'11111222,11111222,99999999' 
TABS,ioos:station:TABS:M:1,1999-09-02T15:30:00Z,28.1921,-94.1914,2.0,70.16330376,21.0702373,-99999.0,'11111222,11111222,99999999' 
TABS,ioos:station:TABS:M:1,1999-09-02T16:00:00Z,28.1921,-94.1914,2.0,121.3122642,16.91350348,-99999.0,'11111222,11111222,99999999' 
TABS,ioos:station:TABS:M:1,1999-09-02T16:30:00Z,28.1921,-94.1914,2.0,131.8245103,15.19076364,-99999.0,'11111222,11111222,99999999' 
TABS,ioos:station:TABS:M:1,1999-09-02T17:00:00Z,28.1921,-94.1914,2.0,123.3755262,15.1601847,-99999.0,'11111222,11111222,99999999' 
TABS,ioos:station:TABS:M:1,1999-09-02T17:30:00Z,28.1921,-94.1914,2.0,106.4557142,20.51011945,-99999.0,'11111222,11111222,99999999' 
TABS,ioos:station:TABS:M:1,1999-09-02T18:00:00Z,28.1921,-94.1914,2.0,110.6536618,21.97216648,-99999.0,'11111222,11111222,99999999' 
TABS,ioos:station:TABS:M:1,1999-09-02T18:30:00Z,28.1921,-94.1914,2.0,125.9291642,18.03042983,-99999.0,'11111222,11111222,99999999' 
TABS,ioos:station:TABS:M:1,1999-09-02T19:00:00Z,28.1921,-94.1914,2.0,127.4183766,18.38284254,-99999.0,'11111222,11111222,99999999' 
TABS,ioos:station:TABS:M:1,1999-09-02T19:30:00Z,28.1921,-94.1914,2.0,139.4023588,16.48888413,-99999.0,'11111222,11111222,99999999' 
TABS,ioos:station:TABS:M:1,1999-09-02T20:00:00Z,28.1921,-94.1914,2.0,173.4413538,13.04537083,-99999.0,'11111222,11111222,99999999' 
TABS,ioos:station:TABS:M:1,1999-09-02T20:30:00Z,28.1921,-94.1914,2.0,165.2702139,14.63082021,-99999.0,'11111222,11111222,99999999' 
TABS,ioos:station:TABS:M:1,1999-09-02T21:00:00Z,28.1921,-94.1914,2.0,125.2281703,15.4983612,-99999.0,'11111222,11111222,99999999' 
TABS,ioos:station:TABS:M:1,1999-09-02T21:30:00Z,28.1921,-94.1914,2.0,157.2743878,10.01770932,-99999.0,'11111222,11111222,99999999' 
TABS,ioos:station:TABS:M:1,1999-09-02T22:00:00Z,28.1921,-94.1914,2.0,111.0407659,12.45011245,-99999.0,'11111222,11111222,99999999' 
TABS,ioos:station:TABS:M:1,1999-09-02T22:30:00Z,28.1921,-94.1914,2.0,125.3840903,6.942333902,-99999.0,'11133222,11111222,99999999' 
TABS,ioos:station:TABS:M:1,1999-09-02T23:00:00Z,28.1921,-94.1914,2.0,124.4944381,6.3214318,-99999.0,'11133222,11111222,99999999' 
TABS,ioos:station:TABS:M:1,1999-09-02T23:30:00Z,28.1921,-94.1914,2.0,210.6800096,5.546332121,-99999.0,'11133222,11111222,99999999' 
TABS,ioos:station:TABS:M:1,1999-09-03T00:00:00Z,28.1921,-94.1914,2.0,259.4307233,4.852319033,-99999.0,'11133222,11111222,99999999' 
TABS,ioos:station:TABS:M:1,1999-09-03T00:30:00Z,28.1921,-94.1914,2.0,285.3855733,6.181520848,-99999.0,'11133222,11111222,99999999' 
TABS,ioos:station:TABS:M:1,1999-09-03T01:00:00Z,28.1921,-94.1914,2.0,315.7304671,8.323322654,-99999.0,'11133222,11111222,99999999' 
TABS,ioos:station:TABS:M:1,1999-09-03T01:30:00Z,28.1921,-94.1914,2.0,320.8234757,10.38441621,-99999.0,'11111222,11111222,99999999' 
TABS,ioos:station:TABS:M:1,1999-09-03T02:00:00Z,28.1921,-94.1914,2.0,324.8794909,11.66343431,-99999.0,'11111222,11111222,99999999' 
TABS,ioos:station:TABS:M:1,1999-09-03T02:30:00Z,28.1921,-94.1914,2.0,335.8736205,12.40351966,-99999.0,'11111222,11111222,99999999' 
TABS,ioos:station:TABS:M:1,1999-09-03T03:00:00Z,28.1921,-94.1914,2.0,345.8006407,12.7598511,-99999.0,'11111222,11111222,99999999' 
TABS,ioos:station:TABS:M:1,1999-09-03T03:30:00Z,28.1921,-94.1914,2.0,354.3695409,12.12852011,-99999.0,'11111222,11111222,99999999' 
TABS,ioos:station:TABS:M:1,1999-09-03T04:00:00Z,28.1921,-94.1914,2.0,2.713613559,12.67421003,-99999.0,'11111222,11111222,99999999' 
TABS,ioos:station:TABS:M:1,1999-09-03T04:30:00Z,28.1921,-94.1914,2.0,9.738438966,10.58248553,-99999.0,'11111222,11111222,99999999' 
TABS,ioos:station:TABS:M:1,1999-09-03T05:00:00Z,28.1921,-94.1914,2.0,15.67893542,12.69225354,-99999.0,'11111222,11111222,99999999' 
TABS,ioos:station:TABS:M:1,1999-09-03T05:30:00Z,28.1921,-94.1914,2.0,23.87677005,12.87155779,-99999.0,'11111222,11111222,99999999' 
TABS,ioos:station:TABS:M:1,1999-09-03T06:00:00Z,28.1921,-94.1914,2.0,21.01069271,13.72233581,-99999.0,'11111222,11111222,99999999' 
TABS,ioos:station:TABS:M:1,1999-09-03T06:30:00Z,28.1921,-94.1914,2.0,36.65751209,16.71611498,-99999.0,'11111222,11111222,99999999' 
TABS,ioos:station:TABS:M:1,1999-09-03T07:00:00Z,28.1921,-94.1914,2.0,39.48368058,16.40306374,-99999.0,'11111222,11111222,99999999' 
TABS,ioos:station:TABS:M:1,1999-09-03T07:30:00Z,28.1921,-94.1914,2.0,40.01378312,16.92146566,-99999.0,'11111222,11111222,99999999' 
TABS,ioos:station:TABS:M:1,1999-09-03T08:00:00Z,28.1921,-94.1914,2.0,43.89793079,16.54228823,-99999.0,'11111222,11111222,99999999' 
TABS,ioos:station:TABS:M:1,1999-09-03T08:30:00Z,28.1921,-94.1914,2.0,46.78188381,20.24011117,-99999.0,'11111222,11111222,99999999' 
TABS,ioos:station:TABS:M:1,1999-09-03T09:00:00Z,28.1921,-94.1914,2.0,56.89281679,20.45008068,-99999.0,'11111222,11111222,99999999' 
TABS,ioos:station:TABS:M:1,1999-09-03T09:30:00Z,28.1921,-94.1914,2.0,55.84938354,20.69930675,-99999.0,'11111222,11111222,99999999' 
TABS,ioos:station:TABS:M:1,1999-09-03T10:00:00Z,28.1921,-94.1914,2.0,51.57150801,22.05816175,-99999.0,'11111222,11111222,99999999' 
TABS,ioos:station:TABS:M:1,1999-09-03T10:30:00Z,28.1921,-94.1914,2.0,49.96105829,21.9956382,-99999.0,'11111222,11111222,99999999' 
TABS,ioos:station:TABS:M:1,1999-09-03T11:00:00Z,28.1921,-94.1914,2.0,81.62073286,28.61546785,-99999.0,'11111222,11111222,99999999' 
TABS,ioos:station:TABS:M:1,1999-09-03T11:30:00Z,28.1921,-94.1914,2.0,88.47850642,27.86982598,-99999.0,'11111222,11111222,99999999' 
TABS,ioos:station:TABS:M:1,1999-09-03T12:00:00Z,28.1921,-94.1914,2.0,60.07395418,25.0960734,-99999.0,'11111222,11111222,99999999' 
TABS,ioos:station:TABS:M:1,1999-09-03T12:30:00Z,28.1921,-94.1914,2.0,95.74013333,32.79444008,-99999.0,'11111222,11111222,99999999' 
TABS,ioos:station:TABS:M:1,1999-09-03T13:00:00Z,28.1921,-94.1914,2.0,102.013831,40.06758915,-99999.0,'11111222,11111222,99999999' 
TABS,ioos:station:TABS:M:1,1999-09-03T13:30:00Z,28.1921,-94.1914,2.0,83.19655413,36.46678626,-99999.0,'11111222,11111222,99999999' 
TABS,ioos:station:TABS:M:1,1999-09-03T14:00:00Z,28.1921,-94.1914,2.0,89.76363317,36.3603094,-99999.0,'11111222,11111222,99999999' 
TABS,ioos:station:TABS:M:1,1999-09-03T14:30:00Z,28.1921,-94.1914,2.0,103.4151251,39.82668954,-99999.0,'11111222,11111222,99999999' 
TABS,ioos:station:TABS:M:1,1999-09-03T15:00:00Z,28.1921,-94.1914,2.0,105.6760272,39.15643498,-99999.0,'11111222,11111222,99999999' 
TABS,ioos:station:TABS:M:1,1999-09-03T15:30:00Z,28.1921,-94.1914,2.0,103.6081828,38.63457778,-99999.0,'11111222,11111222,99999999' 
TABS,ioos:station:TABS:M:1,1999-09-03T16:00:00Z,28.1921,-94.1914,2.0,114.9077364,36.80318464,-99999.0,'11111222,11111222,99999999' 
TABS,ioos:station:TABS:M:1,1999-09-03T16:30:00Z,28.1921,-94.1914,2.0,96.5896484,31.19609751,-99999.0,'11111222,11111222,99999999' 
TABS,ioos:station:TABS:M:1,1999-09-03T17:00:00Z,28.1921,-94.1914,2.0,100.2407033,34.36749191,-99999.0,'11111222,11111222,99999999' 
TABS,ioos:station:TABS:M:1,1999-09-03T17:30:00Z,28.1921,-94.1914,2.0,96.78270225,30.31214938,-99999.0,'11111222,11111222,99999999' 
TABS,ioos:station:TABS:M:1,1999-09-03T18:00:00Z,28.1921,-94.1914,2.0,100.3950339,27.26754114,-99999.0,'11111222,11111222,99999999' 
TABS,ioos:station:TABS:M:1,1999-09-03T18:30:00Z,28.1921,-94.1914,2.0,101.7582059,25.56648196,-99999.0,'11111222,11111222,99999999' 
TABS,ioos:station:TABS:M:1,1999-09-03T19:00:00Z,28.1921,-94.1914,2.0,125.6678811,24.02728657,-99999.0,'11111222,11111222,99999999' 
TABS,ioos:station:TABS:M:1,1999-09-03T19:30:00Z,28.1921,-94.1914,2.0,106.5408239,25.64110762,-99999.0,'11111222,11111222,99999999' 
TABS,ioos:station:TABS:M:1,1999-09-03T20:00:00Z,28.1921,-94.1914,2.0,109.781395,25.97263367,-99999.0,'11111222,11111222,99999999' 
TABS,ioos:station:TABS:M:1,1999-09-03T20:30:00Z,28.1921,-94.1914,2.0,102.414725,22.88512399,-99999.0,'11111222,11111222,99999999' 
TABS,ioos:station:TABS:M:1,1999-09-03T21:00:00Z,28.1921,-94.1914,2.0,96.89606807,13.658814,-99999.0,'11111222,11111222,99999999' 
TABS,ioos:station:TABS:M:1,1999-09-03T21:30:00Z,28.1921,-94.1914,2.0,102.6551037,8.855122811,-99999.0,'11133222,11111222,99999999' 
TABS,ioos:station:TABS:M:1,1999-09-03T22:00:00Z,28.1921,-94.1914,2.0,99.5141983,3.629931129,-99999.0,'11133222,11111222,99999999' 
TABS,ioos:station:TABS:M:1,1999-09-03T22:30:00Z,28.1921,-94.1914,2.0,108.5630837,1.413541651,-99999.0,'11133222,11111222,99999999' 
TABS,ioos:station:TABS:M:1,1999-09-03T23:00:00Z,28.1921,-94.1914,2.0,18.3580023,2.34957443,-99999.0,'11133222,11111222,99999999' 
TABS,ioos:station:TABS:M:1,1999-09-03T23:30:00Z,28.1921,-94.1914,2.0,341.5653047,4.237452065,-99999.0,'11133222,11111222,99999999' 
TABS,ioos:station:TABS:M:1,1999-09-04T00:00:00Z,28.1921,-94.1914,2.0,3.116678514,5.518160926,-99999.0,'11133222,11111222,99999999' 
TABS,ioos:station:TABS:M:1,1999-09-04T00:30:00Z,28.1921,-94.1914,2.0,357.3818071,6.566856173,-99999.0,'11133222,11111222,99999999' 
TABS,ioos:station:TABS:M:1,1999-09-04T01:00:00Z,28.1921,-94.1914,2.0,351.8797453,8.42447031,-99999.0,'11133222,11111222,99999999' 
TABS,ioos:station:TABS:M:1,1999-09-04T01:30:00Z,28.1921,-94.1914,2.0,344.9078987,8.026867384,-99999.0,'11133222,11111222,99999999' 
TABS,ioos:station:TABS:M:1,1999-09-04T02:00:00Z,28.1921,-94.1914,2.0,347.0272402,9.933544181,-99999.0,'11133222,11111222,99999999' 
TABS,ioos:station:TABS:M:1,1999-09-04T02:30:00Z,28.1921,-94.1914,2.0,349.9311713,11.95412063,-99999.0,'11111222,11111222,99999999' 
TABS,ioos:station:TABS:M:1,1999-09-04T03:00:00Z,28.1921,-94.1914,2.0,346.2399478,23.16484621,-99999.0,'11111222,11111222,99999999' 
TABS,ioos:station:TABS:M:1,1999-09-04T03:30:00Z,28.1921,-94.1914,2.0,356.8425974,24.32693363,-99999.0,'11111222,11111222,99999999' 
TABS,ioos:station:TABS:M:1,1999-09-04T04:00:00Z,28.1921,-94.1914,2.0,359.1992983,21.46209682,-99999.0,'11111222,11144222,99999999' 
TABS,ioos:station:TABS:M:1,1999-09-04T04:30:00Z,28.1921,-94.1914,2.0,8.240048657,22.88626007,-99999.0,'11111222,11111222,99999999' 
TABS,ioos:station:TABS:M:1,1999-09-04T05:00:00Z,28.1921,-94.1914,2.0,5.532691912,18.56648863,-99999.0,'11111222,11111222,99999999' 
TABS,ioos:station:TABS:M:1,1999-09-04T05:30:00Z,28.1921,-94.1914,2.0,10.35606255,19.08082283,-99999.0,'11111222,11111222,99999999' 
TABS,ioos:station:TABS:M:1,1999-09-04T06:00:00Z,28.1921,-94.1914,2.0,21.05529223,18.67696442,-99999.0,'11111222,11111222,99999999' 
TABS,ioos:station:TABS:M:1,1999-09-04T06:30:00Z,28.1921,-94.1914,2.0,26.84107169,14.86108004,-99999.0,'11111222,11111222,99999999' 
TABS,ioos:station:TABS:M:1,1999-09-04T07:00:00Z,28.1921,-94.1914,2.0,28.04410452,12.99588396,-99999.0,'11111222,11111222,99999999' 
TABS,ioos:station:TABS:M:1,1999-09-04T07:30:00Z,28.1921,-94.1914,2.0,32.33252033,13.92965901,-99999.0,'11111222,11111222,99999999' 
TABS,ioos:station:TABS:M:1,1999-09-04T08:00:00Z,28.1921,-94.1914,2.0,37.88167765,15.29238373,-99999.0,'11111222,11111222,99999999' 
TABS,ioos:station:TABS:M:1,1999-09-04T08:30:00Z,28.1921,-94.1914,2.0,43.30379021,14.3322643,-99999.0,'11111222,11111222,99999999' 
TABS,ioos:station:TABS:M:1,1999-09-04T09:00:00Z,28.1921,-94.1914,2.0,46.20982879,15.0718048,-99999.0,'11111222,11111222,99999999' 
TABS,ioos:station:TABS:M:1,1999-09-04T09:30:00Z,28.1921,-94.1914,2.0,44.55960408,13.79606103,-99999.0,'11111222,11111222,99999999' 
TABS,ioos:station:TABS:M:1,1999-09-04T10:00:00Z,28.1921,-94.1914,2.0,39.80043584,13.96626292,-99999.0,'11111222,11111222,99999999' 
TABS,ioos:station:TABS:M:1,1999-09-04T10:30:00Z,28.1921,-94.1914,2.0,42.32804702,13.49920368,-99999.0,'11111222,11111222,99999999' 
TABS,ioos:station:TABS:M:1,1999-09-04T11:00:00Z,28.1921,-94.1914,2.0,41.25301746,12.87565532,-99999.0,'11111222,11111222,99999999' 
TABS,ioos:station:TABS:M:1,1999-09-04T11:30:00Z,28.1921,-94.1914,2.0,51.825884,13.26743758,-99999.0,'11111222,11111222,99999999' 
TABS,ioos:station:TABS:M:1,1999-09-04T12:00:00Z,28.1921,-94.1914,2.0,54.67941574,14.42527296,-99999.0,'11111222,11111222,99999999' 
TABS,ioos:station:TABS:M:1,1999-09-04T12:30:00Z,28.1921,-94.1914,2.0,59.89876582,15.15361673,-99999.0,'11111222,11111222,99999999' 
TABS,ioos:station:TABS:M:1,1999-09-04T13:00:00Z,28.1921,-94.1914,2.0,72.41436657,15.78782442,-99999.0,'11111222,11111222,99999999' 
TABS,ioos:station:TABS:M:1,1999-09-04T13:30:00Z,28.1921,-94.1914,2.0,72.77309594,15.59982051,-99999.0,'11111222,11111222,99999999' 
TABS,ioos:station:TABS:M:1,1999-09-04T14:00:00Z,28.1921,-94.1914,2.0,72.06409363,15.97643264,-99999.0,'11111222,11111222,99999999' 
TABS,ioos:station:TABS:M:1,1999-09-04T14:30:00Z,28.1921,-94.1914,2.0,93.2473352,18.35947984,-99999.0,'11111222,11111222,99999999' 
TABS,ioos:station:TABS:M:1,1999-09-04T15:00:00Z,28.1921,-94.1914,2.0,94.39618133,17.48143301,-99999.0,'11111222,11111222,99999999' 
TABS,ioos:station:TABS:M:1,1999-09-04T15:30:00Z,28.1921,-94.1914,2.0,96.15807638,15.28821769,-99999.0,'11111222,11111222,99999999' 
TABS,ioos:station:TABS:M:1,1999-09-04T16:00:00Z,28.1921,-94.1914,2.0,91.38927445,12.3736373,-99999.0,'11111222,11111222,99999999' 
TABS,ioos:station:TABS:M:1,1999-09-04T16:30:00Z,28.1921,-94.1914,2.0,105.159303,13.11642101,-99999.0,'11111222,11111222,99999999' 
TABS,ioos:station:TABS:M:1,1999-09-04T17:00:00Z,28.1921,-94.1914,2.0,109.1093016,11.82141278,-99999.0,'11111222,11111222,99999999' 
TABS,ioos:station:TABS:M:1,1999-09-04T17:30:00Z,28.1921,-94.1914,2.0,108.64445,12.10527984,-99999.0,'11111222,11111222,99999999' 
TABS,ioos:station:TABS:M:1,1999-09-04T18:00:00Z,28.1921,-94.1914,2.0,107.2929511,9.520346632,-99999.0,'11133222,11111222,99999999' 